This is the latest recevied weather packets stored in our database for station/object W8CEN. If no packets are shown the sender has not sent any weather packets the latest 10 day(s).
| Time | Temp. | Humidity | Pressure | Rain* | Wind** | Luminosity | Snow |
|---|---|---|---|---|---|---|---|
| 1777626160 | 6.11° C | 94% | 992.3 hPa | 0 mm | - | 0 W/m² | - |
| 1777625860 | 6.11° C | 94% | 992.2 hPa | 0 mm | - | 0 W/m² | - |
| 1777625556 | 6.11° C | 93% | 992.3 hPa | 0 mm | - | 0 W/m² | - |
| 1777625251 | 6.11° C | 93% | 992.2 hPa | 0 mm | - | 0 W/m² | - |
| 1777624948 | 5.56° C | 93% | 992.2 hPa | 1.78 mm | - | 0 W/m² | - |
| 1777624645 | 6.11° C | 93% | 992.5 hPa | 1.78 mm | - | 0 W/m² | - |
| 1777624340 | 5.56° C | 93% | 992.5 hPa | 0 mm | - | 0 W/m² | - |
| 1777624037 | 5.56° C | 93% | 992.4 hPa | 0 mm | - | 0 W/m² | - |
| 1777623734 | 6.11° C | 93% | 992.4 hPa | 0 mm | - | 0 W/m² | - |
| 1777623431 | 6.11° C | 92% | 992.5 hPa | 1.27 mm | - | 0 W/m² | - |
| 1777623128 | 6.11° C | 92% | 992.4 hPa | 1.27 mm | - | 0 W/m² | - |
| 1777622826 | 6.11° C | 91% | 992.5 hPa | 3.05 mm | - | 0 W/m² | - |
| 1777622522 | 6.11° C | 91% | 992.6 hPa | 3.05 mm | - | 0 W/m² | - |
| 1777622219 | 6.11° C | 91% | 992.5 hPa | 1.27 mm | - | 0 W/m² | - |
| 1777621915 | 6.11° C | 90% | 992.5 hPa | 1.78 mm | - | 0 W/m² | - |
| 1777621610 | 6.11° C | 90% | 992.5 hPa | 1.78 mm | - | 0 W/m² | - |
| 1777621307 | 6.11° C | 89% | 992.4 hPa | 0 mm | - | 0 W/m² | - |
| 1777621003 | 6.11° C | 89% | 992.3 hPa | 0 mm | - | 0 W/m² | - |
| 1777620699 | 6.11° C | 88% | 992.2 hPa | 1.78 mm | - | 0 W/m² | - |
| 1777620395 | 6.11° C | 87% | 992.3 hPa | 1.78 mm | - | 0 W/m² | - |
| 1777620093 | 6.67° C | 86% | 992.5 hPa | 0 mm | - | 0 W/m² | - |
| 1777619789 | 6.67° C | 85% | 992.5 hPa | 1.27 mm | - | 0 W/m² | - |
| 1777619484 | 6.67° C | 83% | 992.6 hPa | 1.27 mm | - | 0 W/m² | - |
| 1777619180 | 6.67° C | 80% | 992.6 hPa | 0 mm | - | 0 W/m² | - |
| 1777618874 | 7.22° C | 79% | 992.9 hPa | 0 mm | - | 0 W/m² | - |
* Rain latest hour (hover to see other rain measurements)
** Current wind speed in m/s (hover to see current wind gust speed)